Regional Weather Roundup
Issued by NWS New Orleans/Baton Rouge, LA

Home | Current Version | Previous Version | Graphics & Text | Print | Product List | Glossary On
Versions: 1 2 3 4 5 6 7 8 9 10 11 12 13 14 15 16 17 18 19 20 21 22 23 24 25 26 27 28 29 30 31 32 33 34 35 36 37 38 39 40 41 42 43 44 45 46 47 48 49 50
152
ASUS44 KLIX 010201
RWRLIX
NEW ORLEANS REGIONAL WEATHER ROUNDUP
NATIONAL WEATHER SERVICE NEW ORLEANS LA
900 PM CDT THU JUL 31 2014

NOTE: "FAIR" INDICATES FEW OR NO CLOUDS BELOW 12,000 FEET WITH NO
      SIGNIFICANT WEATHER AND/OR OBSTRUCTIONS TO VISIBILITY.
      SKY/WX - SKY CONDITION AND SIGNIFICANT WEATHER.
      TMP - AIR TEMPERATURE.     DP    - DEWPOINT TEMPERATURE.
      RH  - RELATIVE HUMIDITY.   PRES  - PRESSURE.
      HI  - HEAT INDEX.          WCI   - WIND CHILL INDEX.

*  THESE STATIONS ARE NOT NWS OR FAA STATIONS AND ARE NOT UNDER
   NWS QUALITY CONTROL.

LAZ038-040-048-061>063-065>067-069-010300-
SOUTHEAST LOUISIANA

CITY           SKY/WX    TMP DP  RH WIND       PRES   REMARKS
N.O. AUDUBON     N/A     85  70  60 MISG        N/A
N.O. INTL ARPT MOCLDY    82  62  50 E5        29.98S
N.O. LAKEFRONT PTCLDY    82  69  64 SE6       29.99S
N.O. DOWNTOWN*   N/A     82  66  57 SE3       29.99S
SLIDELL        PTCLDY    75  69  81 CALM      29.99S
BATON ROUGE    CLOUDY    78  68  71 NE7       29.97F
BOOTHVILLE     CLEAR     80  66  62 E3        30.00S
BELLE CHASSE   MOCLDY    77  70  79 CALM      29.98S
BOGALUSA*        N/A     76  67  71 NE5       30.02S
GALLIANO*      NOT AVBL
NEW ROADS*       N/A     78  65  64 E6        29.97S
GONZALES*      MOCLDY    80  72  75 CALM      29.97S
HAMMOND*       NOT AVBL
HOUMA*         PTCLDY    78  68  73 CALM      29.98S
PORT FOURCHON* CLEAR     82  68  61 SE6       30.00F

$$

MSZ070-080>082-010300-
SOUTHERN MISSISSIPPI

CITY           SKY/WX    TMP DP  RH WIND       PRES   REMARKS
MCCOMB         MOCLDY    75  64  68 NE5       30.01F
GULFPORT       MOCLDY    80  69  69 CALM      29.98S
BILOXI         MOCLDY    78  65  62 CALM      29.99S
PASCAGOULA     PTCLDY    72  68  87 NW3       29.99S
STENNIS ARPT*  CLEAR    N/A N/A N/A CALM      30.00R

$$

COASTAL OBSERVATIONS
LAKE AND NEARSHORE STATIONS

STATION/POSITION TIME  TEMP    WIND        PRES    WAVE
                       AIR SEA DIR/SP/G            HT/PER
                 (UTC) (F)     (DEG/KT/KT) (MB)    (FT/S)
PASCAGOULA       0100   80     280/  3/  4 1015.0
WAVELAND YACHT   0100   82     240/  2/  2 1014.9
GRAND ISLE       0100   82 88  130/  3/  5 1016.2
SOUTHWEST PASS   0100   83 86   50/  6/  6 1016.0
NEW CANAL        0100   84 84   80/  2/  4 1015.7
SHELL BEACH      0100   81 83  170/  4/  5 1015.4

OFFSHORE STATIONS

STATION/POSITION TIME  TEMP    WIND        PRES    WAVE
                       AIR SEA DIR/SP/G            HT/PER
                 (UTC) (F)     (DEG/KT/KT) (MB)    (FT/S)
64 S DAUPHIN ISL 0118   82 86  360/  4/  6 1015.8

$$




USA.gov is the U.S. government's official web portal to all federal, state and local government web resources and services.